Voltar ao catálogo

STARLINK-37096

AtivoComunicaçõesVLEO
NORAD 68239·PAYLOAD·🇺🇸 United States

Lançado Mar 17, 2026 de Vandenberg Space Force Base

Loading…

Próximas Passagens (próximas 24 horas)

TLE

AtualizadoSource: CelesTrak SupGP

Época: Sep 14, 2026, 23:00 UTC

1 68239C 26054H   26257.95881944 -.00038366  00000+0 -11337-2 0  2576
2 68239  53.1573 127.6003 0001273  87.0473 203.5866 15.34406438    14

Acompanhe STARLINK-37096 em tempo real com AllMySat

Download on the App Store